Location: Crni Vrh Observatory
(45.9460°N, 14.0712°E)
Time: 06:50:48
(UTC+02:00)

Tiangong - Visible Passes

Search period start: 20 May 2026 00:00
Search period end: 30 May 2026 00:00
Orbit: 381 x 391 km, 41.5° (Epoch: 19 May)

Date Brightness Start Highest point End Pass type
(mag) Time Alt. Az. Time Alt. Az. Time Alt. Az.
20 May -0.8 22:22:55 10° SW 22:25:00 25° SSW 22:25:00 25° SSW visible
21 May -0.7 21:23:59 10° SSW 21:26:31 22° SSE 21:29:01 10° ESE visible
21 May -0.2 22:59:58 10° WSW 23:01:17 20° SW 23:01:17 20° SW visible
22 May -1.4 22:00:45 10° WSW 22:03:41 33° S 22:04:59 23° SE visible
23 May -1.4 22:37:56 10° WSW 22:40:43 35° SSW 22:40:43 35° SSW visible
24 May -1.4 21:38:36 10° WSW 21:41:35 36° S 21:44:04 13° ESE visible
24 May 0.2 23:15:21 10° WSW 23:16:17 16° WSW 23:16:17 16° WSW visible
25 May -1.2 22:15:52 10° WSW 22:18:45 31° S 22:19:31 27° SSE visible
26 May -1.3 21:16:26 10° WSW 21:19:24 35° S 21:22:22 10° ESE visible
26 May -0.1 22:53:27 10° WSW 22:54:55 17° SW 22:54:55 17° SW visible
27 May -0.7 21:53:47 10° WSW 21:56:29 25° SSW 21:58:03 17° SSE visible
28 May 0.2 22:31:50 10° SW 22:33:22 13° SSW 22:33:22 13° SSW visible
29 May -0.2 21:31:46 10° WSW 21:34:05 18° SSW 21:36:24 10° SSE visible
